{"data":{"norad_id":63079,"epoch":"2026-05-25T03:00:52.195968Z","epoch_age_seconds":54349,"freshness":"FRESH","line1":"1 63079U 25037C   26145.12560412  .00002869  00000+0  24809-3 0  9991","line2":"2 63079  70.0001 161.6392 0004096 266.8962  93.1728 14.98336594 70044","mean_motion":14.98336594,"eccentricity":0.0004096,"inclination_deg":70.0001,"raan_deg":161.6392,"arg_perigee_deg":266.8962,"mean_anomaly_deg":93.1728,"bstar":0.00024809,"rev_number":7004,"period_min":96.106576170294,"perigee_km":569.1887089623,"apogee_km":574.88229027398,"semimajor_km":6950.1724996181,"source":"CELESTRAK","updated_at":"2026-05-25T13:38:19.877027Z"}}